Regional Weather Roundup
Issued by NWS

Home | Current Version | Previous Version | Text Only | Print | Product List | Glossary On
Versions: 1 2 3 4 5 6 7 8 9 10 11 12 13 14 15 16 17 18 19 20 21 22 23 24 25 26 27 28 29 30 31 32 33 34 35 36 37 38 39 40 41 42 43 44 45 46 47 48 49 50
000
ASUS43 KLSX 220907
RWRMO

WEATHER SUMMARY FOR MISSOURI
NATIONAL WEATHER SERVICE SPRINGFIELD MO
400 AM CDT SUN OCT 22 2017

NOTE: "FAIR" INDICATES FEW OR NO CLOUDS BELOW 12,000 FEET WITH NO
       SIGNIFICANT WEATHER AND/OR OBSTRUCTIONS TO VISIBILITY.
       CURRENT SKY AND/OR WEATHER CONDITIONS ARE NOT AVAILABLE FOR
       CHILLICOTHE AND FARMINGTON.

MOZ001>031-035>038-043-044-053-054-221000-
...NORTHERN AND WESTERN MISSOURI...

CITY           SKY/WX    TMP DP  RH WIND       PRES   REMARKS
KANSAS CTY INT LGT RAIN  50  46  86 NE12      29.98S
KANSAS C DTWN  LGT RAIN  52  50  93 N6        29.99S
LEE`S SUMMIT   LGT RAIN  50  49  96 NE13      29.99F
ST JOSEPH      CLOUDY    51  51 100 CALM      30.01R
CHILLICOTHE      N/A     51  49  92 N6        30.00R
KIRKSVILLE     LGT RAIN  51  51 100 N12G22    29.96R

$$
MOZ066>068-077>081-088>096-101>105-221000-
...SOUTHWEST MISSOURI...

CITY           SKY/WX    TMP DP  RH WIND       PRES   REMARKS
SPRINGFIELD    RAIN      59  59 100 W3        29.96F FOG
JOPLIN         HVY RAIN  54  54 100 MISG      29.93F FOG
BRANSON        HVY RAIN  59  59 100 NW6       29.99F

$$
MOZ032>034-039>042-045>050-055>058-069>072-221000-
...CENTRAL MISSOURI...

CITY           SKY/WX    TMP DP  RH WIND       PRES   REMARKS
COLUMBIA       LGT RAIN  61  60  97 NW13      29.91R
JEFFERSON CITY RAIN      61  58  90 NW13      29.91R
ROLLA          TSTM      58  57  97 NW24      29.89R FOG
SEDALIA        LGT RAIN  54  54 100 NW12      29.98R
WHITEMAN AFB   RAIN      52  50  93 N14       29.94R
WARRENSBURG    RAIN      50  48  93 N7G17     29.99S
OSAGE BEACH    RAIN      59  58  96 W6        29.94R

$$
MOZ051-052-059>065-221000-
...EAST CENTRAL MISSOURI...

CITY           SKY/WX    TMP DP  RH WIND       PRES   REMARKS
ST LOUIS INTL  CLOUDY    70  63  78 S16G25    29.89S
SPIRIT OF STL  LGT RAIN  71  64  78 SE9       29.86F
ST CHARLES     CLOUDY    70  63  78 SE14      29.88S

$$
MOZ072>076-082>087-097>100-106>115-221000-
...SOUTH CENTRAL AND SOUTHEAST MISSOURI...

CITY           SKY/WX    TMP DP  RH WIND       PRES   REMARKS
CAPE GIRARDEAU CLOUDY    68  60  75 SE12      29.96F
FARMINGTON     LGT RAIN  66  64  93 S18G25    29.92F
POPLAR BLUFF   MOCLDY    70  64  81 S15G23    29.93F
WEST PLAINS    HVY RAIN  58  55  90 W12G20    29.94R FOG

$$



USA.gov is the U.S. government's official web portal to all federal, state and local government web resources and services.